TIANLIAN 1-02

Last updated on Jan. 15, 2021, 6:31 a.m. UTC

1 37737U 11032A   21014.84368294 -.00000026  00000-0  00000-0 0  9995
2 37737   2.7988  75.2571 0013471 119.2038  34.6652  1.00271769 24375
UTC
Height (km)
Latitude
Longitude
Inclination
Orbital Period
UTC large
Height (km)
Speed (km/s)
/
Latitude / Longitude
Inclination (degrees)
Orbital Period (minutes)
Azimuth
Elevation
Range (km)
Doppler Factor
iOS Compass Heading
iOS Angle

Next 30 passes for location: Hong Kong

Rise time Rise Azimuth (degrees) Set time Set Azimuth (degrees) Duration Max altitude (degrees)

No matching passes for this satellites